FENGYUN 1C DEB

Satellite information

Favourite Embed

Satellite Type and Status

DEBRISIN ORBIT

Key statistics

Satellite FENGYUN 1C DEB at a glance.

Uptime

9715

Days in orbit

Revolutions

≈ 14.4

Per day

Orbit

SSO

Sun Synchronous Orbit

Inclination

98.4

Latest

Satellite identification and parameters

Extended collection of information and parameters for FENGYUN 1C DEB.

Object identification

Identified? True

Debris? True

Object name: FENGYUN 1C DEB

International designator: 1999-025BVW

Object number (NORAD): 31482

Object ID (CCSDS): 31482

Country: PEOPLES REPUBLIC OF CHINA (PRC)

Current information (Y/N): Y

RCS size: SMALL

Orbital parameters

Period: 100.303 minutes

Inclination: 98.383 deg

SMA: 7151.049 km

Apoapsis: 836.433 km

Periapsis: 709.395 km

RAAN: 349.194 deg

Eccentricy: 0.00888249

Argument of periapsis: 286.624 deg

Mean anomaly: 87.9915 deg

Mean motion: 14.35648587 rev/day

Mean motion (dot): 0.00003979 rev/day2

B* drag term: 0.0013328779 1/REarth

Two-line elements (TLE)

Creation date: Dec. 11, 2025, 10:54 a.m.

Reference frame: TEME

Reference center: EARTH

Epoch: Dec. 11, 2025, 7:08 a.m. UTC

TLE line 0: 0 FENGYUN 1C DEB

TLE line 1: 1 31482U 99025BVW 25345.29758772 .00003979 00000-0 13329-2 0 9997

TLE line 2: 2 31482 98.3830 349.1940 0088825 286.6240 87.9915 14.35648587971096

Live tracking on map

Real-time ground track for satellite FENGYUN 1C DEB.

In-orbit conjunctions

A list of the most updated potential collisions computed for object FENGYUN 1C DEB.

Target Orbit TCA Probability of collision Miss distance Type
PEGASUS DEB LEO 2024-10-10 05:47:31 0.0001226022 88.0 (m) DEBRIS
CZ-4 DEB SSO 2024-06-25 15:50:02 0.0001011714 107.0 (m) DEBRIS

Associated space launch

Chinese polar orbiting meteorological satellite

FENGYUN 1C DEB was lifted into orbit during the mission ‘Long March 4B | Feng Yun 1C’, on board a Long March 4B space rocket.

The launch took place on May 10, 1999, 1:33 a.m. from Launch Complex 7.

For more information about the launch, click the button.

Launch to space Long March 4B | Feng Yun 1C
Long March 4B | Feng Yun 1C

Agency: N/A

Status: Launch Successful

Launch date: May 10, 1999, 1:33 a.m. UTC

Rocket: Long March 4B

Launch pad: Launch Complex 7

Location: Taiyuan Satellite Launch Center, People's Republic of China

...

Latest news about this satellite

There are no fresh news available about this satellite. Check back as we update our databases every day.


Newsletter sign-up

Weekly statistics, charts and insights to help you stay on top of the space industry.